DateTimeUTC,F1_A11,F1_S11,BsB_S11,BsG_S11,BsR_S11,BbsB_S11,BbsG_S11,BbsR_S11,BaB_A11,BaG_A11,BaR_A11,Tu_S11,T_S11,Uu_S11,U_S11,P_S11,T1_A11
2021-11-03T01:00:00Z,00000200,21000000,,,,,,,0000.35,-000.00,-000.13,18.8,25.6,00.6,00.4,0640.7,31.1
2021-11-03T01:01:00Z,00000200,21000000,,,,,,,0000.04,0000.02,0000.13,18.7,25.6,00.6,00.4,0640.7,31.1
2021-11-03T01:02:00Z,00000200,21000000,,,,,,,-000.33,-000.05,0000.01,18.7,25.6,00.6,00.4,0640.7,31.1
2021-11-03T01:03:00Z,00000200,61000000,,,,,,,0000.10,0000.37,0000.16,18.7,25.6,00.6,00.4,0640.7,31.1
2021-11-03T01:04:00Z,00000200,41000000,-000.28,0000.24,0000.32,0000.61,-000.03,0000.13,0000.54,0000.05,-000.01,18.7,25.3,00.7,00.5,0641.6,31.1
2021-11-03T01:05:00Z,00000200,01000000,0001.07,0000.48,0000.15,0000.87,0000.10,0000.03,-000.33,0000.22,0000.04,18.8,25.3,00.8,00.5,0641.6,31.1
2021-11-03T01:06:00Z,00000200,01000000,0000.52,0000.20,0000.10,0000.53,-000.14,-000.12,0000.48,0000.06,0000.31,18.9,25.4,00.8,00.5,0641.6,31.1
2021-11-03T01:07:00Z,00000200,01000000,0000.20,0000.25,0000.26,0000.26,-000.15,-000.23,0000.21,0000.58,0000.24,19.0,25.4,00.7,00.5,0641.6,31.1
2021-11-03T01:08:00Z,00000200,01000000,0000.76,-000.05,0000.35,0000.72,-000.01,-000.30,0000.46,0000.59,0000.22,19.1,25.4,00.7,00.5,0641.7,31.1
2021-11-03T01:09:00Z,00000200,01000000,0001.03,0000.12,0000.05,0001.39,-000.34,0000.01,0000.21,-000.58,0000.39,19.2,25.4,00.8,00.6,0641.7,31.1
2021-11-03T01:10:00Z,00000200,01000000,0000.70,0000.19,0000.43,0000.50,0000.01,-000.30,0000.11,0000.68,0000.06,19.2,25.5,00.9,00.6,0641.7,31.2
2021-11-03T01:11:00Z,00000200,01000000,-000.11,0000.12,-000.16,0000.43,-000.14,-000.14,0000.05,0000.03,-000.18,19.2,25.5,00.8,00.6,0641.7,31.1
2021-11-03T01:12:00Z,00000200,01000000,-000.10,0000.50,0000.30,0000.28,0000.11,0000.26,0000.23,0000.05,0000.20,19.2,25.5,00.8,00.6,0641.7,31.1
2021-11-03T01:13:00Z,00000200,01000000,0000.23,0000.13,0000.34,0000.24,0000.03,0000.44,0000.36,0000.26,0000.30,19.1,25.5,00.8,00.6,0641.7,31.1
2021-11-03T01:14:00Z,00000200,01000000,0000.67,0000.32,0000.18,0000.42,0000.05,-000.15,-000.03,-000.04,0000.09,19.1,25.4,00.8,00.5,0641.6,31.1
2021-11-03T01:15:00Z,00000200,01000000,0001.31,0000.56,-000.00,0000.32,0000.13,-000.36,0000.32,0000.26,0000.07,19.0,25.4,00.8,00.6,0641.6,31.1
2021-11-03T01:16:00Z,00000200,01000000,0001.33,0000.50,-000.10,-000.04,-000.00,-000.22,-000.14,-000.09,-000.15,19.0,25.4,00.8,00.6,0641.6,31.1
2021-11-03T01:17:00Z,00000200,01000000,0000.43,0000.28,0000.34,0000.80,-000.08,-000.02,0000.40,-000.03,0000.12,18.9,25.3,00.9,00.6,0641.6,31.1
2021-11-03T01:18:00Z,00000200,01000000,0000.74,0000.46,-000.07,0000.64,0000.00,-000.22,0000.05,0000.35,0000.28,18.9,25.3,00.9,00.6,0641.7,31.1
2021-11-03T01:19:00Z,00000200,01000000,0001.22,0000.40,0000.55,0000.40,-000.06,-000.04,0000.17,0000.17,0000.20,18.9,25.3,00.9,00.6,0641.7,31.1
2021-11-03T01:20:00Z,00000200,01000000,0001.09,0000.20,-000.04,0000.95,-000.44,-000.40,0000.06,0000.25,-000.10,18.9,25.3,00.9,00.6,0641.6,31.1
2021-11-03T01:21:00Z,00000200,01000000,0000.51,0000.39,0000.14,0000.53,-000.01,-000.16,0000.17,0000.07,0000.54,19.0,25.3,01.0,00.7,0641.6,31.1
2021-11-03T01:22:00Z,00000200,01000000,0001.71,0000.19,0000.11,0000.71,0000.21,-000.02,0000.66,0000.26,-000.00,19.1,25.4,00.9,00.6,0641.6,31.1
2021-11-03T01:23:00Z,00000200,01000000,0000.49,0000.52,0000.15,0000.45,0000.05,-000.14,0000.04,0000.45,0000.37,19.2,25.4,01.0,00.7,0641.6,31.1
2021-11-03T01:24:00Z,00000200,01000000,0000.96,0000.30,0000.39,0000.45,-000.24,0000.03,-000.08,0000.31,0000.08,19.2,25.5,01.0,00.7,0641.6,31.2
2021-11-03T01:25:00Z,00000200,01000000,0001.02,0000.30,0000.38,0000.47,-000.21,0000.07,0000.89,0000.21,0000.07,19.3,25.5,01.0,00.7,0641.6,31.2
2021-11-03T01:26:00Z,00000200,01000000,0000.85,-000.03,0000.35,0000.67,0000.22,0000.10,0000.01,0000.13,0000.40,19.2,25.5,00.9,00.6,0641.6,31.1
2021-11-03T01:27:00Z,00000200,01000000,0001.01,0000.44,-000.12,0000.33,-000.09,-000.17,0000.17,0000.01,0000.02,19.2,25.5,00.9,00.6,0641.6,31.1
2021-11-03T01:28:00Z,00000200,01000000,0001.08,0000.08,0000.32,0000.40,-000.21,-000.09,0000.15,0000.09,-000.00,19.1,25.4,00.9,00.6,0641.6,31.1
2021-11-03T01:29:00Z,00000200,01000000,0000.23,0000.11,0000.40,0000.28,0000.35,0000.10,0000.06,0000.13,0000.22,19.1,25.4,01.1,00.7,0641.6,31.1
2021-11-03T01:30:00Z,00000200,01000000,0000.05,0000.25,0000.16,0000.54,-000.11,-000.28,0000.05,-000.34,-000.20,19.0,25.4,01.0,00.7,0641.6,31.1
2021-11-03T01:31:00Z,00000200,01000000,0001.30,0000.01,0000.53,0000.65,-000.20,0000.01,-000.10,0000.24,0000.39,19.0,25.4,01.0,00.7,0641.6,31.1
2021-11-03T01:32:00Z,00000200,01000000,0000.27,0000.60,0000.24,0000.65,-000.19,-000.09,0000.22,0000.24,-000.33,18.9,25.3,00.9,00.6,0641.6,31.1
2021-11-03T01:33:00Z,00000200,01000000,-000.19,0000.33,0000.16,-000.21,0000.12,-000.22,-000.02,0000.01,0000.25,18.9,25.3,01.0,00.7,0641.6,31.1
2021-11-03T01:34:00Z,00000200,01000000,-000.28,0000.24,0000.34,0000.68,-000.14,0000.02,0000.31,0000.24,-000.01,18.9,25.3,01.0,00.7,0641.6,31.1
2021-11-03T01:35:00Z,00000200,01000000,0000.94,0000.38,0000.40,0000.43,0000.05,-000.04,0000.02,0000.34,0000.29,18.9,25.3,00.9,00.6,0641.6,31.1
2021-11-03T01:36:00Z,00000200,01000000,0000.84,0000.51,0000.27,-000.03,-000.06,-000.20,0000.27,-000.07,-000.03,19.0,25.3,00.9,00.6,0641.6,31.1
2021-11-03T01:37:00Z,00000200,01000000,0000.86,0000.46,0000.19,0000.34,-000.07,-000.16,0000.23,0000.37,0000.32,19.1,25.4,01.0,00.7,0641.6,31.1
2021-11-03T01:38:00Z,00000200,01000000,0001.07,0000.20,0000.12,0001.15,-000.10,-000.65,0000.10,0000.23,0000.03,19.2,25.4,00.9,00.6,0641.6,31.2
2021-11-03T01:39:00Z,00000200,01000000,0000.75,0000.08,0000.34,0001.53,-000.25,-000.25,0000.30,0000.03,0000.23,19.3,25.5,01.0,00.7,0641.6,31.2
2021-11-03T01:40:00Z,00000200,01000000,0000.90,0000.29,0000.12,0000.50,0000.12,0000.00,0000.23,0000.36,0000.24,19.3,25.5,01.0,00.7,0641.6,31.2
2021-11-03T01:41:00Z,00000200,01000000,0000.20,0000.34,0000.13,0000.24,-000.27,-000.25,-000.06,0000.37,0000.31,19.4,25.5,01.0,00.7,0641.5,31.2
2021-11-03T01:42:00Z,00000200,01000000,0000.29,0000.10,0000.17,0001.00,-000.02,-000.01,0000.41,-000.18,0000.03,19.3,25.5,00.9,00.6,0641.6,31.1
2021-11-03T01:43:00Z,00000200,01000000,0000.41,0000.40,-000.03,0000.49,-000.36,-000.25,0000.11,0000.07,-000.04,19.3,25.5,00.9,00.6,0641.6,31.1
2021-11-03T01:44:00Z,00000200,01000000,-000.11,0000.23,0000.28,0000.11,-000.41,-000.12,-000.26,-000.05,-000.23,19.2,25.5,00.9,00.6,0641.6,31.1
2021-11-03T01:45:00Z,00000200,01000000,0001.48,0000.33,0000.17,0000.33,-000.38,0000.24,0000.11,-000.05,0000.46,19.1,25.4,00.9,00.6,0641.5,31.1
2021-11-03T01:46:00Z,00000200,01000000,-000.18,0000.48,0000.14,0000.78,-000.13,-000.25,0000.06,0000.22,-000.38,19.1,25.4,01.0,00.7,0641.5,31.1
2021-11-03T01:47:00Z,00000200,01000000,0000.93,0000.08,0000.56,0000.65,-000.11,-000.13,0000.42,0000.17,0000.45,19.0,25.4,00.9,00.6,0641.5,31.1
2021-11-03T01:48:00Z,00000200,01000000,0000.82,0000.25,-000.14,0000.58,-000.07,-000.30,-000.29,0000.16,-000.02,19.0,25.4,00.9,00.6,0641.5,31.1
2021-11-03T01:49:00Z,00000200,01000000,0000.54,0000.39,-000.09,0000.40,-000.04,-000.31,0000.54,-000.01,0000.06,19.0,25.3,00.9,00.6,0641.5,31.1
2021-11-03T01:50:00Z,00000200,01000000,0001.18,0000.24,0000.36,-000.18,-000.22,0000.05,-000.08,0000.08,0000.18,19.0,25.4,01.0,00.7,0641.5,31.1
2021-11-03T01:51:00Z,00000200,01000000,0000.61,0000.24,-000.02,0001.34,0000.12,-000.07,0000.10,0000.17,0000.29,19.1,25.4,00.8,00.6,0641.5,31.1
2021-11-03T01:52:00Z,00000200,01000000,0000.09,0000.33,-000.09,0000.49,-000.21,-000.12,-000.13,0000.26,-000.42,19.2,25.5,00.8,00.5,0641.5,31.1
2021-11-03T01:53:00Z,00000200,01000000,0000.51,0000.01,0000.39,0000.73,0000.06,0000.09,0000.15,-000.06,0000.53,19.3,25.5,00.8,00.5,0641.5,31.2
2021-11-03T01:54:00Z,00000200,01000000,0000.20,0000.43,0000.18,-000.01,0000.24,-000.01,-000.15,0000.24,-000.28,19.3,25.5,00.7,00.5,0641.5,31.2
2021-11-03T01:55:00Z,00000200,01000000,0000.50,0000.38,0000.56,-000.12,-000.06,0000.09,0000.67,-000.09,-000.04,19.3,25.5,00.8,00.5,0641.5,31.1
2021-11-03T01:56:00Z,00000200,01000000,-000.72,0000.28,-000.39,0000.39,-000.21,-000.29,-000.13,0000.10,0000.60,19.2,25.5,00.7,00.5,0641.5,31.1
2021-11-03T01:57:00Z,00000200,41000000,,,,,,,0000.04,0000.19,0000.02,19.2,25.5,00.9,00.6,0641.4,31.1
2021-11-03T01:58:00Z,00000200,61000000,,,,,,,-000.18,-000.08,-000.38,18.9,25.5,00.7,00.4,0640.6,31.1
2021-11-03T01:59:00Z,00000200,21000000,,,,,,,-000.12,-000.61,-000.39,18.8,25.6,00.6,00.4,0640.6,31.1
